Location: Karcze
(52.0945°N, 22.4786°E)
Time: 20:55:46
(UTC+00:00)

Transit 2A Rocket - Pass Details

Date: 02 August 2021
Orbit: 586 x 917 km, 66.7° (Epoch: 26 September)

Event Time Altitude Azimuth Distance (km) Brightness Sun altitude
Rises 20:03:53 0° 321° (NW) 3,209 10.3 -12.9°
Reaches altitude 10° 20:06:12 10° 323° (NW) 2,331 9.0 -13.1°
Maximum altitude 20:11:36 73° 48° (NE) 869 5.3 -13.6°
Enters shadow 20:15:50 19° 131° (SE) 1,928 6.5 -14.0°
Drops below altitude 10° 20:17:27 10° 134° (SE) 2,522 - -14.1°
Sets 20:20:02 0° 136° (SE) 3,490 - -14.3°
